Location: Mactaquac Provincial Park
(45.9573°N, 66.8897°W)
Time: 20:48:01
(UTC-03:00)

CENTAUR R/B - Visible Passes

Search period start: 29 September 2016 00:00
Search period end: 09 October 2016 00:00
Orbit: 845 x 1343 km, 63.5° (Epoch: 27 September)

Date Brightness Start Highest point End Pass type
(mag) Time Alt. Az. Time Alt. Az. Time Alt. Az.
29 Sep 4.9 00:59:05 10° NW 01:04:02 20° N 01:09:22 10° NE visible
29 Sep 4.8 02:51:38 10° NNW 02:57:30 25° NNE 03:03:49 10° ENE visible
29 Sep 3.6 04:42:21 10° NW 04:49:52 57° NE 04:58:00 10° ESE visible
29 Sep 3.4 06:33:16 10° NW 06:40:37 45° WSW 06:48:22 10° S visible
29 Sep 3.0 20:26:34 10° S 20:32:05 37° ESE 20:38:13 10° NE visible
29 Sep 3.3 22:16:24 10° WSW 22:22:30 52° NW 22:29:26 10° NE visible
30 Sep 4.7 00:09:49 10° WNW 00:14:58 22° NNW 00:20:36 10° NE visible
30 Sep 4.9 02:03:07 10° NW 02:08:28 21° NNE 02:14:13 10° ENE visible
30 Sep 4.1 03:54:10 10° NNW 04:01:18 42° NE 04:09:01 10° ESE visible
30 Sep 3.0 05:44:50 10° NW 05:52:33 67° WSW 06:00:47 10° SSE visible
30 Sep 3.6 19:39:50 10° SSE 19:44:21 22° ESE 19:49:14 10° ENE visible
30 Sep 2.6 21:27:57 10° SW 21:34:07 77° NW 21:41:10 10° NE visible
30 Sep 4.4 23:20:32 10° W 23:26:01 27° NNW 23:32:04 10° NNE visible
01 Oct 4.9 01:14:21 10° NW 01:19:22 20° N 01:24:44 10° NE visible
01 Oct 4.4 03:05:58 10° NNW 03:12:34 32° NNE 03:19:41 10° E visible
01 Oct 3.0 04:56:32 10° NW 05:04:19 86° NE 05:12:40 10° SE visible
01 Oct 4.0 06:48:12 10° WNW 06:54:26 26° WSW 07:00:55 10° SSW visible
01 Oct 2.4 20:39:54 10° SSW 20:45:57 69° ESE 20:52:50 10° NE visible
01 Oct 4.0 22:31:24 10° W 22:37:13 35° NNW 22:43:43 10° NNE visible
02 Oct 4.9 00:25:19 10° NW 00:30:14 20° N 00:35:33 10° NE visible
02 Oct 4.7 02:17:40 10° NNW 02:23:41 26° NNE 02:30:09 10° ENE visible
02 Oct 3.4 04:08:20 10° NW 04:15:56 62° NE 04:24:09 10° SE visible
02 Oct 3.5 05:59:22 10° NW 06:06:34 40° WSW 06:14:08 10° S visible
02 Oct 2.9 19:52:19 10° S 19:57:59 42° ESE 20:04:18 10° NE visible
02 Oct 3.5 21:42:31 10° WSW 21:48:35 48° NW 21:55:27 10° NNE visible
02 Oct 4.8 23:36:04 10° WNW 23:41:10 22° NNW 23:46:42 10° NE visible
03 Oct 4.8 01:29:13 10° NW 01:34:40 22° NNE 01:40:32 10° ENE visible
03 Oct 3.9 03:20:10 10° NNW 03:27:24 45° NE 03:35:13 10° ESE visible
03 Oct 3.0 05:10:52 10° NW 05:18:31 61° WSW 05:26:40 10° SSE visible
03 Oct 2.8 20:53:58 10° SW 21:00:09 70° NW 21:07:11 10° NE visible
03 Oct 4.5 22:46:46 10° WNW 22:52:11 26° NNW 22:58:08 10° NNE visible
04 Oct 4.9 00:40:31 10° NW 00:45:35 20° N 00:51:01 10° NE visible
04 Oct 4.3 02:31:58 10° NNW 02:38:42 34° NNE 02:45:59 10° E visible
04 Oct 2.9 04:22:33 10° NW 04:30:20 87° SW 04:38:41 10° SE visible
04 Oct 4.0 06:14:26 10° WNW 06:20:20 23° WSW 06:26:26 10° SSW visible
04 Oct 2.5 20:05:49 10° SSW 20:11:55 77° SE 20:18:52 10° NE visible
04 Oct 4.2 21:57:36 10° W 22:03:20 32° NNW 22:09:45 10° NNE visible
04 Oct 4.9 23:51:32 10° NW 23:56:28 20° N 00:00:01 14° NNE visible
05 Oct 4.8 01:43:42 10° NNW 01:56:10 11° ENE 01:56:29 10° E visible
05 Oct 3.5 03:43:38 56° E 03:43:38 56° E 03:50:15 10° SE visible
05 Oct 3.5 05:31:07 34° W 05:32:30 36° WSW 05:39:51 10° S visible
05 Oct 2.8 19:18:07 10° S 19:23:55 48° ESE 19:30:24 10° NE visible
05 Oct 3.6 21:08:39 10° WSW 21:14:39 44° NW 21:21:27 10° NNE visible
05 Oct 4.8 23:02:19 10° WNW 23:07:21 21° NNW 23:12:17 12° NNE visible
06 Oct 4.8 00:55:17 10° NW 00:59:24 21° N 00:59:24 21° N visible
06 Oct 5.1 02:46:09 10° NNW 03:00:22 14° ESE 03:01:25 10° ESE visible
06 Oct 3.8 04:47:47 36° S 04:47:47 36° S 04:52:32 10° SSE visible
06 Oct 4.6 06:35:12 11° WSW 06:35:12 11° WSW 06:36:21 10° WSW visible
06 Oct 3.0 20:20:01 10° SW 20:26:10 64° NW 20:33:12 10° NE visible
06 Oct 4.6 22:13:02 10° WNW 22:18:21 24° NNW 22:24:12 10° NNE visible
07 Oct 4.8 00:06:39 10° NW 00:11:48 20° N 00:12:05 20° N visible
07 Oct 5.1 01:57:58 10° NNW 01:59:13 15° NNW 01:59:13 15° NNW visible
07 Oct 5.0 04:03:52 13° SSE 04:03:52 13° SSE 04:04:40 10° SSE visible
07 Oct 4.8 05:51:15 12° SSW 05:51:15 12° SSW 05:51:54 10° SSW visible
07 Oct 2.6 19:31:45 10° SW 19:37:54 85° SE 19:44:54 10° NE visible
07 Oct 4.3 21:23:48 10° W 21:29:28 31° NNW 21:35:47 10° NNE visible
07 Oct 4.8 23:17:44 10° NW 23:22:40 20° N 23:24:55 17° NNE visible
08 Oct 5.0 01:09:43 10° NNW 01:12:04 19° NNW 01:12:04 19° NNW visible
08 Oct 3.8 20:34:48 10° WSW 20:40:45 41° NW 20:47:28 10° NNE visible
08 Oct 4.8 22:28:35 10° WNW 22:33:34 21° N 22:37:50 13° NNE visible
